Location: Burbank
(38.7788°N, 114.0429°W)
Time: 20:46:59
(UTC+00:00)

Vanguard 2 Rocket - Pass Details

Date: 16 May 2026
Orbit: 553 x 3286 km, 32.9° (Epoch: 6 June)

Event Time Altitude Azimuth Distance (km) Brightness Sun altitude
Rises 18:31:47 0° 244° (WSW) 5,033 10.7 66.4°
Reaches altitude 10° 18:34:36 10° 241° (WSW) 4,343 10.5 66.8°
Maximum altitude 18:47:25 65° 164° (SSE) 2,913 12.4 68.1°
Drops below altitude 10° 19:06:39 10° 89° (E) 6,226 11.4 69.7°
Sets 19:11:38 0° 87° (E) 7,250 11.5 69.9°
